Weather History for Wheeling, WV

Change the Weather History Date:

Wednesday, March 13, 2013

  Actual Average Record
Temperature  
Mean Temperature 30 °F 39 °F  
Max Temperature 34 °F 48 °F 74 °F (2006)
Min Temperature 26 °F 30 °F 9 °F (2014)
Degree Days  
Heating Degree Days 35 26  
Month to date heating degree days 371 367  
Since 1 July heating degree days 4383 4534  
Cooling Degree Days 0    
Month to date cooling degree days 0  
Year to date cooling degree days 0  
Moisture  
Dew Point 25 °F    
Average Humidity 73    
Maximum Humidity 92    
Minimum Humidity 54    
Precipitation  
Precipitation 0.02 in 0.10 in 0.57 in (2006)
Month to date precipitation 0.52 1.11  
Sea Level Pressure  
Sea Level Pressure 30.00 in    
Wind  
Wind Speed 13 mph (WSW)    
Max Wind Speed 26 mph    
Max Gust Speed 36 mph    
Visibility 5 miles    
Events Fog , Snow    
T = Trace of Precipitation, MM = Missing Value Source: NWS Daily Summary

Daily Weather History Graph

Daily Weather History Graph

Search for Another Location

Airport:

Trip Planner

Search our weather history database for the weather conditions in past years. The results will help you decide how hot, cold, wet, or windy it might be!

Date:

Astronomy

Mar. 13, 2013 Rise Set
Actual Time 7:36 AM EDT 7:27 PM EDT
Civil Twilight 7:09 AM EDT 7:54 PM EDT
Nautical Twilight 6:38 AM EDT 8:26 PM EDT
Astronomical Twilight 6:06 AM EDT 8:58 PM EDT
Moon 8:15 AM EDT (3/13) 9:42 PM EDT (3/13)
Length of Visible Light 12h 44m
Length of Day
11h 50m
Waxing Crescent, 4% of the Moon is Illuminated
Mar 13
Waxing Crescent
Mar 19
First Quarter
Mar 27
Full
Apr 3
Last Quarter
Apr 10
New

Hourly Weather History & Observations

Time (EDT) Temp. Windchill Dew Point Humidity Pressure Visibility Wind Dir Wind Speed Gust Speed Precip Events Conditions
12:53 AM 34.0 °F 28.8 °F 27.0 °F 75% 30.00 in 10.0 mi South 5.8 mph - N/A   Overcast
1:53 AM 33.1 °F 24.9 °F 28.0 °F 82% 30.00 in 10.0 mi WSW 10.4 mph - 0.00 in   Overcast
2:08 AM 33.8 °F 27.0 °F 28.4 °F 81% 29.96 in 10.0 mi WSW 8.1 mph - N/A   Overcast
2:18 AM 33.8 °F 27.0 °F 30.2 °F 87% 29.95 in 9.0 mi SW 8.1 mph - N/A   Overcast
2:46 AM 32.0 °F 27.5 °F 30.2 °F 93% 29.94 in 9.0 mi SW 4.6 mph - N/A   Overcast
2:53 AM 32.0 °F 26.4 °F 28.9 °F 88% 29.98 in 9.0 mi SSW 5.8 mph - N/A   Overcast
3:43 AM 30.2 °F 23.4 °F 28.4 °F 93% 29.93 in 8.0 mi SW 6.9 mph - N/A   Mostly Cloudy
3:53 AM 30.9 °F 25.2 °F 28.9 °F 92% 29.97 in 7.0 mi SSW 5.8 mph - N/A   Mostly Cloudy
4:23 AM 30.2 °F 21.3 °F 28.4 °F 93% 29.91 in 7.0 mi SSW 10.4 mph - N/A   Scattered Clouds
4:53 AM 30.9 °F 24.3 °F 28.9 °F 92% 29.95 in 7.0 mi SSW 6.9 mph - N/A   Mostly Cloudy
5:43 AM 30.2 °F 21.9 °F 28.4 °F 93% 29.91 in 7.0 mi SW 9.2 mph - N/A   Overcast
5:47 AM 30.2 °F 22.6 °F 28.4 °F 93% 29.91 in 7.0 mi SW 8.1 mph - N/A   Overcast
5:53 AM 30.9 °F 22.2 °F 28.9 °F 92% 29.95 in 7.0 mi SW 10.4 mph - N/A   Overcast
6:39 AM 32.0 °F 21.2 °F 28.4 °F 87% 29.92 in 9.0 mi WSW 16.1 mph 21.9 mph N/A   Overcast
6:53 AM 32.0 °F 23.0 °F 27.0 °F 82% 29.96 in 10.0 mi WSW 11.5 mph 18.4 mph N/A   Overcast
7:19 AM 32.0 °F 24.2 °F 26.6 °F 80% 29.92 in 10.0 mi WSW 9.2 mph - N/A   Overcast
7:53 AM 30.9 °F 22.2 °F 26.1 °F 82% 29.96 in 9.0 mi West 10.4 mph - 0.00 in   Overcast
8:25 AM 30.2 °F 23.4 °F 26.6 °F 86% 29.93 in 10.0 mi West 6.9 mph - N/A   Overcast
8:43 AM 30.2 °F 22.6 °F 26.6 °F 86% 29.93 in 10.0 mi WSW 8.1 mph - N/A   Overcast
8:53 AM 30.9 °F 22.8 °F 25.0 °F 79% 29.97 in 10.0 mi SW 9.2 mph 18.4 mph N/A   Overcast
9:14 AM 30.2 °F 22.6 °F 26.6 °F 86% 29.94 in 1.8 mi West 8.1 mph - 0.00 in Snow Light Snow
9:24 AM 30.2 °F 23.4 °F 26.6 °F 86% 29.94 in 0.8 mi WSW 6.9 mph - 0.00 in Snow Light Snow
9:26 AM 30.2 °F 24.3 °F 26.6 °F 86% 29.94 in 1.0 mi WSW 5.8 mph - 0.00 in Snow Light Snow
9:31 AM 30.2 °F 24.3 °F 26.6 °F 86% 29.94 in 1.2 mi West 5.8 mph - 0.00 in Snow Light Snow
9:42 AM 30.2 °F 24.3 °F 26.6 °F 86% 29.94 in 1.0 mi WSW 5.8 mph - 0.00 in Snow Light Snow
9:51 AM 30.2 °F 22.6 °F 26.6 °F 86% 29.94 in 0.8 mi SW 8.1 mph - 0.00 in Snow Light Snow
9:53 AM 30.0 °F 21.7 °F 27.0 °F 88% 29.99 in 0.8 mi WSW 9.2 mph - 0.00 in Snow Light Snow
9:56 AM 30.2 °F 23.4 °F 26.6 °F 86% 29.94 in 1.0 mi SW 6.9 mph - 0.00 in Snow Light Snow
10:20 AM 30.2 °F 22.6 °F 28.4 °F 93% 29.95 in 0.8 mi WSW 8.1 mph - 0.00 in Snow Light Snow
10:23 AM 30.2 °F 23.4 °F 28.4 °F 93% 29.95 in 0.5 mi West 6.9 mph - 0.00 in Fog , Snow Snow
10:37 AM 28.4 °F 17.0 °F 26.6 °F 93% 29.95 in 0.2 mi West 15.0 mph 23.0 mph 0.01 in Fog , Snow Snow
10:44 AM 28.4 °F 18.0 °F 26.6 °F 93% 29.95 in 0.2 mi West 12.7 mph 20.7 mph 0.01 in Fog , Snow Snow
10:53 AM 28.9 °F 20.4 °F 27.0 °F 92% 30.00 in 0.2 mi West 9.2 mph 19.6 mph 0.01 in Fog , Snow Heavy Snow
11:16 AM 28.4 °F 17.5 °F 26.6 °F 93% 29.96 in 0.8 mi West 13.8 mph 24.2 mph 0.01 in Snow Light Snow
11:19 AM 30.2 °F 20.8 °F 26.6 °F 86% 29.96 in 2.0 mi West 11.5 mph 24.2 mph 0.01 in Snow Light Snow
11:21 AM 30.2 °F 20.8 °F 26.6 °F 86% 29.96 in 4.0 mi West 11.5 mph 23.0 mph 0.01 in Snow Light Snow
11:28 AM 30.2 °F 21.9 °F 24.8 °F 80% 29.96 in 10.0 mi West 9.2 mph 20.7 mph 0.01 in   Overcast
11:53 AM 32.0 °F 21.2 °F 25.0 °F 75% 30.01 in 10.0 mi West 16.1 mph 20.7 mph 0.01 in   Overcast
12:23 PM 32.0 °F 20.5 °F 21.2 °F 64% 29.97 in 10.0 mi West 18.4 mph 29.9 mph N/A   Mostly Cloudy
12:53 PM 32.0 °F 21.2 °F 18.0 °F 56% 30.01 in 10.0 mi West 16.1 mph 28.8 mph N/A   Mostly Cloudy
1:53 PM 33.1 °F 22.6 °F 19.0 °F 56% 30.03 in 10.0 mi West 16.1 mph 28.8 mph N/A   Overcast
2:53 PM 33.1 °F 22.2 °F 19.9 °F 59% 30.03 in 10.0 mi West 17.3 mph 26.5 mph 0.00 in   Mostly Cloudy
3:53 PM 28.9 °F 15.4 °F 21.9 °F 75% 30.06 in 0.8 mi NW 21.9 mph 27.6 mph 0.00 in Snow Light Snow
3:57 PM 28.4 °F 15.1 °F 24.8 °F 86% 30.02 in 0.5 mi WNW 20.7 mph 27.6 mph 0.00 in Fog , Snow Snow
4:04 PM 26.6 °F 14.7 °F 24.8 °F 93% 30.02 in 0.2 mi West 15.0 mph 27.6 mph 0.00 in Fog , Snow Heavy Snow
4:14 PM 28.4 °F 17.5 °F 24.8 °F 86% 30.02 in 1.0 mi West 13.8 mph 26.5 mph 0.00 in Snow Light Snow
4:17 PM 28.4 °F 17.0 °F 24.8 °F 86% 30.02 in 2.0 mi West 15.0 mph 26.5 mph 0.00 in Snow Light Snow
4:22 PM 28.4 °F 17.0 °F 23.0 °F 80% 30.02 in 3.0 mi West 15.0 mph 21.9 mph 0.00 in Snow Light Snow
4:36 PM 30.2 °F 19.8 °F 21.2 °F 69% 30.02 in 10.0 mi West 13.8 mph 23.0 mph 0.00 in   Overcast
4:53 PM 30.0 °F 18.3 °F 21.0 °F 69% 30.07 in 10.0 mi WSW 17.3 mph 23.0 mph 0.00 in   Overcast
5:24 PM 28.4 °F 15.1 °F 21.2 °F 74% 30.05 in 1.0 mi WNW 20.7 mph 33.4 mph 0.00 in Snow Light Snow
5:29 PM 26.6 °F 13.4 °F 23.0 °F 86% 30.05 in 0.2 mi WNW 18.4 mph 33.4 mph 0.00 in Fog , Snow Heavy Snow
5:33 PM 26.6 °F 13.4 °F 24.8 °F 93% 30.05 in 0.2 mi West 18.4 mph 27.6 mph 0.00 in Fog , Snow Heavy Snow
5:41 PM 26.6 °F 16.2 °F 24.8 °F 93% 30.05 in 0.2 mi West 11.5 mph 27.6 mph 0.00 in Fog , Snow Light Snow
5:45 PM 28.4 °F 18.0 °F 24.8 °F 86% 30.05 in 1.2 mi West 12.7 mph - 0.00 in Snow Light Snow
5:48 PM 28.4 °F 19.7 °F 23.0 °F 80% 30.05 in 5.0 mi West 9.2 mph - 0.00 in   Overcast
5:53 PM 28.0 °F 17.5 °F 21.9 °F 78% 30.10 in 10.0 mi West 12.7 mph 19.6 mph 0.00 in   Overcast
6:15 PM 28.4 °F 15.4 °F 21.2 °F 74% 30.06 in 2.5 mi West 19.6 mph 28.8 mph 0.00 in Snow Light Snow
6:21 PM 26.6 °F 14.7 °F 21.2 °F 80% 30.07 in 0.8 mi WNW 15.0 mph 27.6 mph 0.00 in Snow Light Snow
6:27 PM 26.6 °F 16.8 °F 21.2 °F 80% 30.06 in 1.2 mi WNW 10.4 mph 23.0 mph 0.00 in Snow Light Snow
6:30 PM 26.6 °F 16.2 °F 21.2 °F 80% 30.06 in 3.0 mi West 11.5 mph - 0.00 in Snow Light Snow
6:53 PM 28.0 °F 17.0 °F 19.0 °F 69% 30.12 in 10.0 mi West 13.8 mph 23.0 mph 0.00 in   Overcast
7:53 PM 28.9 °F 18.2 °F 16.0 °F 58% 30.14 in 10.0 mi West 13.8 mph 20.7 mph N/A   Overcast
8:53 PM 27.0 °F 14.3 °F 19.0 °F 72% 30.16 in 6.0 mi West 17.3 mph 28.8 mph 0.00 in Snow Light Snow
9:53 PM 27.0 °F 14.3 °F 19.0 °F 72% 30.17 in 10.0 mi West 17.3 mph 25.3 mph 0.00 in   Overcast
10:53 PM 27.0 °F 16.7 °F 18.0 °F 69% 30.19 in 10.0 mi West 11.5 mph 17.3 mph N/A   Overcast
11:24 PM 26.6 °F 14.3 °F 19.4 °F 74% 30.13 in 6.0 mi West 16.1 mph 26.5 mph 0.00 in Snow Light Snow
11:53 PM 26.1 °F 15.6 °F 19.9 °F 78% 30.19 in 5.0 mi West 11.5 mph - 0.00 in Snow Light Snow